Location: Newark
(48.8604°N, 2.3376°E)
Time: 23:20:14
(UTC+00:00)

XW-2C - Pass Details

Date: 11 December 2021
Orbit: 503 x 524 km, 97.5° (Epoch: 19 January)

Event Time Altitude Azimuth Distance (km) Brightness Sun altitude
Rises 06:38:00 0° 5° (N) 2,674 ? -8.8°
Reaches altitude 10° 06:40:14 10° 357° (N) 1,779 ? -8.5°
Maximum altitude 06:43:43 35° 291° (WNW) 871 ? -7.9°
Drops below altitude 10° 06:47:12 10° 225° (SW) 1,761 ? -7.4°
Sets 06:49:24 0° 216° (SW) 2,642 ? -7.1°
